User: anonymous   Login
Location: Hale Hill Observatory
(39.3806°N, 86.8431°W)
Time: 02:12:23
(UTC-04:00)
Language:

Cosmos 990 Rocket - Orbit

View from above orbital plane
View from above orbital plane
View from above satellite
View from above satellite

Ground track
Ground track

The orbit data is extracted from the following two-line orbital elements,

1 10677U 78019B   15147.73719162  .00000096  00000-0  38937-4 0  9999
2 10677 074.0385 249.6274 0014663 151.9952 208.1995 14.39863669954339
Epoch (UTC): 27 May 2015 17:41:33
Eccentricity: 0.0014663
inclination: 74.0385°
perigee height: 748 km
apogee height: 769 km
right ascension of ascending node: 249.6274°
argument of perigee: 151.9952°
revolutions per day: 14.39863669
mean anomaly at epoch: 208.1995°
orbit number at epoch: 95433

The dashed part of the orbit path shows where the satellite is in the earth's shadow,  

DLR